| time (UTC) | temp C | wind direction | speed KPH | gust KPH | rain 1hr cm | rain 24hr cm | rain mn cm | humidity % | barometer mb |
| 20260505111549 | 23 | 163 | 3.2 | 8.0 | 0.00 | 0.00 | 0.00 | 88 | 1010.0 |
| 20260505101538 | 22 | 151 | 3.2 | 11.3 | 0.00 | 0.00 | 0.00 | 88 | 1009.8 |
| 20260505100026 | 22 | 167 | 3.2 | 9.7 | 0.00 | 0.00 | 0.00 | 88 | 1009.7 |
| 20260505094528 | 22 | 135 | 1.6 | 11.3 | 0.00 | 0.00 | 0.00 | 88 | 1009.9 |
| 20260505093019 | 22 | 169 | 1.6 | 9.7 | 0.00 | 0.00 | 0.00 | 88 | 1010.2 |
| 20260505091518 | 22 | 209 | 4.8 | 11.3 | 0.00 | 0.00 | 0.00 | 88 | 1010.1 |
| 20260505090014 | 22 | 157 | 1.6 | 11.3 | 0.00 | 0.00 | 0.00 | 88 | 1010.2 |
| 20260505084512 | 22 | 173 | 1.6 | 9.7 | 0.00 | 0.00 | 0.00 | 88 | 1010.2 |
| 20260505083005 | 22 | 156 | 3.2 | 11.3 | 0.00 | 0.00 | 0.00 | 87 | 1010.1 |
| 20260505081601 | 22 | 181 | 3.2 | 14.5 | 0.00 | 0.00 | 0.00 | 87 | 1010.3 |
| 20260505080105 | 22 | 179 | 3.2 | 12.9 | 0.00 | 0.00 | 0.00 | 87 | 1010.6 |
| 20260505074556 | 22 | 189 | 1.6 | 9.7 | 0.00 | 0.00 | 0.00 | 87 | 1010.7 |
| 20260505073058 | 22 | 207 | 4.8 | 14.5 | 0.00 | 0.00 | 0.00 | 87 | 1010.6 |
| 20260505071550 | 22 | 167 | 4.8 | 14.5 | 0.00 | 0.00 | 0.00 | 87 | 1010.6 |
| 20260505070052 | 22 | 160 | 3.2 | 9.7 | 0.00 | 0.00 | 0.00 | 87 | 1011.0 |
| 20260505064542 | 22 | 167 | 4.8 | 9.7 | 0.00 | 0.00 | 0.00 | 87 | 1011.4 |
| 20260505063048 | 22 | 144 | 1.6 | 9.7 | 0.00 | 0.00 | 0.00 | 87 | 1011.6 |
| 20260505061543 | 22 | 187 | 3.2 | 9.7 | 0.00 | 0.00 | 0.00 | 87 | 1011.7 |
| 20260505060038 | 22 | 157 | 3.2 | 12.9 | 0.00 | 0.00 | 0.00 | 87 | 1011.7 |
| 20260505054540 | 22 | 176 | 1.6 | 9.7 | 0.00 | 0.00 | 0.00 | 87 | 1011.9 |
| 20260505053037 | 22 | 155 | 1.6 | 9.7 | 0.00 | 0.00 | 0.00 | 87 | 1011.8 |
| 20260505051536 | 22 | 175 | 1.6 | 9.7 | 0.00 | 0.00 | 0.00 | 86 | 1011.9 |
| 20260505041548 | 22 | 167 | 3.2 | 9.7 | 0.00 | 0.00 | 0.00 | 86 | 1012.3 |
| 20260505040039 | 22 | 155 | 1.6 | 8.0 | 0.00 | 0.00 | 0.00 | 86 | 1012.5 |
| 20260505034532 | 22 | 152 | 3.2 | 8.0 | 0.00 | 0.00 | 0.00 | 85 | 1012.5 |
| 20260505033031 | 22 | 150 | 3.2 | 9.7 | 0.00 | 0.00 | 0.00 | 85 | 1012.5 |
| 20260505031539 | 22 | 144 | 3.2 | 8.0 | 0.00 | 0.00 | 0.00 | 84 | 1012.5 |
| 20260505030029 | 22 | 168 | 3.2 | 9.7 | 0.00 | 0.00 | 0.00 | 84 | 1012.5 |
| 20260505024530 | 22 | 190 | 4.8 | 11.3 | 0.00 | 0.00 | 0.00 | 83 | 1012.5 |
| 20260505023028 | 22 | 159 | 4.8 | 9.7 | 0.00 | 0.00 | 0.00 | 82 | 1012.6 |
| 20260505021527 | 22 | 150 | 3.2 | 11.3 | 0.00 | 0.00 | 0.00 | 82 | 1012.4 |
| 20260505020027 | 22 | 138 | 3.2 | 11.3 | 0.00 | 0.00 | 0.00 | 82 | 1012.4 |
| 20260505014533 | 22 | 140 | 4.8 | 14.5 | 0.00 | 0.00 | 0.00 | 81 | 1012.3 |
| 20260505013025 | 22 | 143 | 4.8 | 12.9 | 0.00 | 0.00 | 0.00 | 80 | 1012.3 |
| 20260505011524 | 23 | 167 | 6.4 | 9.7 | 0.00 | 0.00 | 0.00 | 80 | 1012.2 |
| 20260505010026 | 23 | 138 | 6.4 | 14.5 | 0.00 | 0.00 | 0.00 | 79 | 1012.1 |
| 20260505004527 | 23 | 159 | 8.0 | 22.5 | 0.00 | 0.00 | 0.00 | 79 | 1011.9 |
| 20260505003022 | 23 | 161 | 6.4 | 22.5 | 0.00 | 0.00 | 0.00 | 77 | 1012.0 |
| 20260505001520 | 23 | 157 | 8.0 | 20.9 | 0.00 | 0.00 | 0.00 | 76 | 1012.0 |
| 20260505000020 | 24 | 95 | 9.7 | 20.9 | 0.00 | 0.00 | 0.00 | 75 | 1012.2 |
| 20260504234519 | 24 | 180 | 9.7 | 17.7 | 0.00 | 0.00 | 0.00 | 76 | 1012.2 |
| 20260504233017 | 24 | 181 | 6.4 | 16.1 | 0.00 | 0.00 | 0.00 | 74 | 1012.3 |
| 20260504231514 | 24 | 138 | 9.7 | 24.1 | 0.00 | 0.00 | 0.00 | 75 | 1012.6 |
| 20260504230014 | 24 | 169 | 8.0 | 19.3 | 0.00 | 0.00 | 0.00 | 75 | 1012.7 |
| 20260504224518 | 24 | 142 | 11.3 | 17.7 | 0.00 | 0.00 | 0.00 | 74 | 1012.7 |
| 20260504223022 | 24 | 144 | 4.8 | 14.5 | 0.00 | 0.00 | 0.00 | 74 | 1013.1 |
| 20260504221509 | 24 | 139 | 8.0 | 16.1 | 0.00 | 0.00 | 0.00 | 75 | 1013.3 |
| 20260504220015 | 24 | 150 | 8.0 | 17.7 | 0.00 | 0.00 | 0.00 | 74 | 1013.3 |
| 20260504214507 | 25 | 137 | 8.0 | 19.3 | 0.00 | 0.00 | 0.00 | 73 | 1013.5 |
| 20260504213019 | 25 | 146 | 8.0 | 19.3 | 0.00 | 0.00 | 0.00 | 71 | 1013.5 |
| 20260504211506 | 25 | 135 | 4.8 | 20.9 | 0.00 | 0.00 | 0.00 | 72 | 1013.6 |
| 20260504210003 | 25 | 130 | 8.0 | 19.3 | 0.00 | 0.00 | 0.00 | 71 | 1013.9 |
| 20260504204503 | 25 | 136 | 8.0 | 17.7 | 0.00 | 0.00 | 0.00 | 69 | 1014.2 |
| 20260504203111 | 25 | 190 | 4.8 | 17.7 | 0.00 | 0.00 | 0.00 | 70 | 1014.2 |
| 20260504201601 | 26 | 163 | 8.0 | 16.1 | 0.00 | 0.00 | 0.00 | 69 | 1014.4 |
| 20260504200118 | 26 | 155 | 6.4 | 17.7 | 0.00 | 0.00 | 0.00 | 68 | 1014.6 |
| 20260504194601 | 26 | 152 | 6.4 | 17.7 | 0.00 | 0.00 | 0.00 | 67 | 1014.7 |
| 20260504193055 | 25 | 134 | 8.0 | 16.1 | 0.00 | 0.00 | 0.00 | 68 | 1015.0 |
| 20260504191557 | 25 | 169 | 6.4 | 20.9 | 0.00 | 0.00 | 0.00 | 67 | 1015.2 |
| 20260504190051 | 25 | 148 | 6.4 | 19.3 | 0.00 | 0.00 | 0.00 | 66 | 1015.3 |
| 20260504184550 | 25 | 163 | 9.7 | 20.9 | 0.00 | 0.00 | 0.00 | 66 | 1015.2 |
| 20260504183049 | 25 | 175 | 4.8 | 16.1 | 0.00 | 0.00 | 0.00 | 66 | 1015.3 |
| 20260504181547 | 25 | 182 | 8.0 | 20.9 | 0.00 | 0.00 | 0.00 | 66 | 1015.7 |
| 20260504180043 | 25 | 159 | 9.7 | 22.5 | 0.00 | 0.00 | 0.00 | 67 | 1015.8 |
| 20260504174543 | 25 | 136 | 8.0 | 17.7 | 0.00 | 0.00 | 0.00 | 67 | 1015.8 |
| 20260504173040 | 25 | 212 | 8.0 | 16.1 | 0.00 | 0.00 | 0.00 | 67 | 1016.1 |
| 20260504171545 | 25 | 153 | 9.7 | 16.1 | 0.00 | 0.00 | 0.00 | 67 | 1016.2 |